Torna al catalogo

NAJM-1

AttivoScienzaSSO
NORAD 47947·PAYLOAD·🇸🇦 Saudi Arabia
Questo nome del satellite non è ancora stato confermato da fonti ufficiali.

Lanciato Mar 22, 2021 da Baikonur Cosmodrome

Loading…

Prossimi Passaggi (prossime 24 ore)

TLE

AggiornatoSource: Space-Track

Epoca: Sep 14, 2026, 14:39 UTC

1 47947U 21022R   26257.61044453 -.00000561  00000-0 -31526-4 0  9992
2 47947  97.3421 129.4497 0016187 221.2186 138.7823 15.09049274301490

Traccia NAJM-1 in tempo reale con AllMySat

Download on the App Store